Satellite: LIBERT
Catalog number: 31129
Epoch time:      08059.67320709
Element set:     786
Inclination:      098.0511 deg
RA of node:       127.7151 deg
Eccentricity:    0.0102140
Arg of perigee:   314.1377 deg
Mean anomaly:     045.1408 deg
Mean motion:   14.52006724 rev/day
Decay rate:       3.37e-06 rev/day^2
Epoch rev:            4602
Checksum:              262

/EX
SB KEPS @ AMSAT  $ORB08059.W
Orbital Elements  08059.WEATHER

HR AMSAT ORBITAL ELEMENTS FOR WEATHER SATELLITES
FROM WA5QGD FORT WORTH,TX February 28, 2008
Send Subscribe/unsubscribe to KEPS at 
http://www.amsat.org/mailman/listinfo/keps
BID: ORB08059.W
TO ALL RADIO AMATEURS BT

Satellite: NOAA-10
Catalog number: 16969
Epoch time:      08059.09872828
Element set:      22
Inclination:      098.7319 deg
RA of node:       081.2414 deg
Eccentricity:    0.0012805
Arg of perigee:   139.3642 deg
Mean anomaly:     220.8490 deg
Mean motion:   14.27351327 rev/day
Decay rate:       -4.4e-07 rev/day^2
Epoch rev:           11573
Checksum:              300

Satellite: NOAA-11
Catalog number: 19531
Epoch time:      08059.34345984
Element set:      57
Inclination:      098.7969 deg
RA of node:       150.2060 deg
Eccentricity:    0.0011941
Arg of perigee:   025.1134 deg
Mean anomaly:     335.0587 deg
Mean motion:   14.14866095 rev/day
Decay rate:      -1.78e-06 rev/day^2
Epoch rev:             237
Checksum:              303

Satellite: NOAA-12
Catalog number: 21263
Epoch time:      08059.49631089
Element set:     564
Inclination:      098.7664 deg
RA of node:       061.4630 deg
Eccentricity:    0.0013418
Arg of perigee:   084.6106 deg
Mean anomaly:     275.6604 deg
Mean motion:   14.25517976 rev/day
Decay rate:       -9.3e-07 rev/day^2
Epoch rev:           87276
Checksum:              327

Satellite: MET-3/5
Catalog number: 21655
Epoch time:      08059.41742151
Element set:     397
Inclination:      082.5576 deg
RA of node:       181.9162 deg
Eccentricity:    0.0012192
Arg of perigee:   290.2123 deg
Mean anomaly:     069.7682 deg
Mean motion:   13.17014140 rev/day
Decay rate:        5.1e-07 rev/day^2
Epoch rev:           79513
Checksum:              290

Satellite: MET-2/21
Catalog number: 22782
Epoch time:      08058.92970016
Element set:      75
Inclination:      082.5487 deg
RA of node:       199.0219 deg
Eccentricity:    0.0021329
Arg of perigee:   237.2943 deg
Mean anomaly:     122.6166 deg
Mean motion:   13.83625887 rev/day
Decay rate:        6.0e-08 rev/day^2
Epoch rev:           73188
Checksum:              325

Satellite: OKEAN-4
Catalog number: 23317
Epoch time:      08059.38459769
Element set:     518
Inclination:      082.5361 deg
RA of node:       057.5183 deg
Eccentricity:    0.0023684
Arg of perigee:   126.0948 deg
Mean anomaly:     234.2443 deg
Mean motion:   14.82581564 rev/day
Decay rate:       2.08e-06 rev/day^2
Epoch rev:           72201
Checksum:              312

Satellite: NOAA-14
Catalog number: 23455
Epoch time:      08059.42397089
Element set:      38
Inclination:      098.9555 deg
RA of node:       131.5623 deg
Eccentricity:    0.0010391
Arg of perigee:   095.6958 deg
Mean anomaly:     264.5397 deg
Mean motion:   14.13734353 rev/day
Decay rate:      -2.55e-06 rev/day^2
Epoch rev:           67884
Checksum:              343

Satellite: SICH-1
Catalog number: 23657
Epoch time:      08059.39932755
Element set:     316
Inclination:      082.5291 deg
RA of node:       198.4581 deg
Eccentricity:    0.0025429
Arg of perigee:   118.9250 deg
Mean anomaly:     241.4517 deg
Mean motion:   14.81554543 rev/day
Decay rate:       1.21e-06 rev/day^2
Epoch rev:           67396
Checksum:              319

Satellite: NOAA-15
Catalog number: 25338
Epoch time:      08059.44708362
Element set:     368
Inclination:      098.5507 deg
RA of node:       054.1255 deg
Eccentricity:    0.0010829
Arg of perigee:   007.4847 deg
Mean anomaly:     352.6499 deg
Mean motion:   14.24688262 rev/day
Decay rate:        8.9e-07 rev/day^2
Epoch rev:           50917
Checksum:              337

Satellite: RESURS
Catalog number: 25394
Epoch time:      08058.73509853
Element set:    0892
Inclination:      098.4032 deg
RA of node:       107.6488 deg
Eccentricity:    0.0001735
Arg of perigee:   130.0471 deg
Mean anomaly:     230.0861 deg
Mean motion:   14.24153680 rev/day
Decay rate:       -9.0e-08 rev/day^2
Epoch rev:           50072
Checksum:              284

Satellite: FENGYUN1
Catalog number: 25730
Epoch time:      08059.24328564
Element set:     350
Inclination:      098.7175 deg
RA of node:       038.7753 deg
Eccentricity:    0.0021940
Arg of perigee:   119.1702 deg
Mean anomaly:     241.1667 deg
Mean motion:   14.07699179 rev/day
Decay rate:       1.76e-06 rev/day^2
Epoch rev:           45349
Checksum:              317

Satellite: OKEAN-0
Catalog number: 25860
Epoch time:      08059.85549990
Element set:     301
Inclination:      097.7446 deg
RA of node:       055.2750 deg
Eccentricity:    0.0000604
Arg of perigee:   055.0405 deg
Mean anomaly:     305.0856 deg
Mean motion:   14.73504432 rev/day
Decay rate:        2.7e-07 rev/day^2
Epoch rev:           46329
Checksum:              290

Satellite: NOAA-16
Catalog number: 26536
Epoch time:      08059.48115047
Element set:     824
Inclination:      099.1499 deg
RA of node:       046.2943 deg
Eccentricity:    0.0010614
Arg of perigee:   169.2592 deg
Mean anomaly:     190.8800 deg
Mean motion:   14.12469339 rev/day
Decay rate:      -2.62e-06 rev/day^2
Epoch rev:           38328
Checksum:              323

Satellite: NOAA-17
Catalog number: 27453
Epoch time:      08059.43700283
Element set:     823
Inclination:      098.5464 deg
RA of node:       127.1877 deg
Eccentricity:    0.0012645
Arg of perigee:   070.8594 deg
Mean anomaly:     289.3959 deg
Mean motion:   14.23953145 rev/day
Decay rate:       1.98e-06 rev/day^2
Epoch rev:           29518
Checksum:              346

Satellite: NOAA-18
Catalog number: 28654
Epoch time:      08059.50716483
Element set:     335
Inclination:      098.8581 deg
RA of node:       001.8446 deg
Eccentricity:    0.0013421
Arg of perigee:   264.7001 deg
Mean anomaly:     095.2624 deg
Mean motion:   14.11140276 rev/day
Decay rate:       -7.0e-07 rev/day^2
Epoch rev:           14300
Checksum:              276

/EX
SB KEPS @ AMSAT  $ORB08059.M
Orbital Elements  08059.MISC

HR AMSAT ORBITAL ELEMENTS FOR MANNED AND MISCELLANEOUS SATELLITES
FROM WA5QGD FORT WORTH,TX February 28, 2008
Send Subscribe/unsubscribe to KEPS at 
http://www.amsat.org/mailman/listinfo/keps
BID: ORB08059.M
TO ALL RADIO AMATEURS BT

Satellite: HUBBLE
Catalog number: 20580
Epoch time:      08059.85253987
Element set:      82
Inclination:      028.4690 deg
RA of node:       316.3167 deg
Eccentricity:    0.0003530
Arg of perigee:   300.4556 deg
Mean anomaly:     059.5683 deg
Mean motion:   15.00342024 rev/day
Decay rate:       3.33e-06 rev/day^2
Epoch rev:           77854
Checksum:              290

Satellite: UARS
Catalog number: 21701
Epoch time:      08059.87476793
Element set:     302
Inclination:      056.9773 deg
RA of node:       278.0302 deg
Eccentricity:    0.0082958
Arg of perigee:   332.6874 deg
Mean anomaly:     026.9834 deg
Mean motion:   15.50706473 rev/day
Decay rate:      2.724e-05 rev/day^2
Epoch rev:           90553
Checksum:              328

Satellite: PO-34
Catalog number: 25520
Epoch time:      08058.75084996
Element set:     940
Inclination:      028.4590 deg
RA of node:       198.1132 deg
Eccentricity:    0.0005806
Arg of perigee:   160.5575 deg
Mean anomaly:     199.5240 deg
Mean motion:   15.17138352 rev/day
Decay rate:       3.71e-06 rev/day^2
Epoch rev:           51637
Checksum:              313

Satellite: ISS
Catalog number: 25544
Epoch time:      08060.01955058
Element set:      15
Inclination:      051.6400 deg
RA of node:       219.0756 deg
Eccentricity:    0.0002632
Arg of perigee:   166.0493 deg
Mean anomaly:     294.7404 deg
Mean motion:   15.75704138 rev/day
Decay rate:     2.6732e-04 rev/day^2
Epoch rev:           53130
Checksum:              271

Satellite: OO-38
Catalog number: 26063
Epoch time:      08059.05152603
Element set:     146
Inclination:      100.2052 deg
RA of node:       113.7203 deg
Eccentricity:    0.0036955
Arg of perigee:   159.3538 deg
Mean anomaly:     200.9138 deg
Mean motion:   14.35828418 rev/day
Decay rate:       -1.5e-07 rev/day^2
Epoch rev:           42376
Checksum:              279

Satellite: UWE-1
Catalog number: 28892
Epoch time:      08058.98971933
Element set:     986
Inclination:      098.1095 deg
RA of node:       315.1926 deg
Eccentricity:    0.0018224
Arg of perigee:   036.2181 deg
Mean anomaly:     324.0264 deg
Mean motion:   14.59596751 rev/day
Decay rate:        7.8e-07 rev/day^2
Epoch rev:           12452
Checksum:              333

Satellite: CO-58
Catalog number: 28895
Epoch time:      08058.96073438
Element set:     958
Inclination:      098.1117 deg
RA of node:       315.4773 deg
Eccentricity:    0.0018558
Arg of perigee:   036.5329 deg
Mean anomaly:     323.7180 deg
Mean motion:   14.59639101 rev/day
Decay rate:       1.58e-06 rev/day^2
Epoch rev:           12440
Checksum:              338

Satellite: NCUBE2
Catalog number: 28897
Epoch time:      08059.21222041
Element set:     489
Inclination:      098.1091 deg
RA of node:       315.6599 deg
Eccentricity:    0.0018098
Arg of perigee:   036.8582 deg
Mean anomaly:     323.3863 deg
Mean motion:   14.59807394 rev/day
Decay rate:       1.20e-06 rev/day^2
Epoch rev:           11672
Checksum:              324

